,,Stat5,,Stat1,,Stat2,,Stat3,,Stat4,,Wind1,,Wind1,
time,status,PA1M_AVG,status,PR1M_SUM,status,RH1M_AVG,status,SR1M_AVG,status,TA1M_AVG,status,W1dAve1m,status,W1sAve1m,
2001-11-13, 00:00:00,VALID,918.004,VALID,0,VALID,96.3736,VALID,0,VALID,19.7825,VALID,36,VALID,0.648232,
2001-11-13, 00:01:00,VALID,918.011,VALID,0,VALID,96.2477,VALID,-0.0169808,VALID,19.7862,VALID,38,VALID,0.895399,
2001-11-13, 00:02:01,VALID,918.008,VALID,0,VALID,96.0608,VALID,-0.0169808,VALID,19.7929,VALID,42,VALID,1.03147,
2001-11-13, 00:03:01,VALID,918.024,VALID,0,VALID,95.8637,VALID,0,VALID,19.8438,VALID,35,VALID,0.69109,
2001-11-13, 00:04:00,VALID,918.026,VALID,0,VALID,95.6005,VALID,0,VALID,19.8893,VALID,26,VALID,0.385074,
2001-11-13, 00:05:00,VALID,918.026,VALID,0,VALID,95.336,VALID,0,VALID,19.9152,VALID,35,VALID,0.421875,
2001-11-13, 00:06:01,VALID,918.002,VALID,0,VALID,95.1046,VALID,0,VALID,19.9251,VALID,35,VALID,0.410567,
2001-11-13, 00:07:00,VALID,918.005,VALID,0,VALID,95.0295,VALID,-0.0339617,VALID,19.9084,VALID,66,VALID,0.447985,
2001-11-13, 00:08:01,VALID,917.989,VALID,0,VALID,95.0435,VALID,-0.0169808,VALID,19.8928,VALID,71,VALID,0.126002,
2001-11-13, 00:09:01,VALID,917.984,VALID,0,VALID,95.0385,VALID,0,VALID,19.8836,VALID,70,VALID,0,
2001-11-13, 00:10:01,VALID,917.954,VALID,0,VALID,95.0308,VALID,-0.0339617,VALID,19.8637,VALID,70,VALID,0,
2001-11-13, 00:11:01,VALID,917.933,VALID,0,VALID,95.0207,VALID,0.0169808,VALID,19.8277,VALID,70,VALID,0,
2001-11-13, 00:12:01,VALID,917.914,VALID,0,VALID,95.0652,VALID,0,VALID,19.7956,VALID,70,VALID,0,
2001-11-13, 00:13:00,VALID,917.887,VALID,0,VALID,95.1732,VALID,-0.0169808,VALID,19.7927,VALID,70,VALID,0.257196,
2001-11-13, 00:14:01,VALID,917.87,VALID,0,VALID,95.3424,VALID,0,VALID,19.7768,VALID,134,VALID,0.334135,
2001-11-13, 00:15:01,VALID,917.851,VALID,0,VALID,95.5395,VALID,0,VALID,19.7633,VALID,163,VALID,0.348273,
2001-11-13, 00:16:01,VALID,917.844,VALID,0,VALID,95.6997,VALID,0,VALID,19.7569,VALID,163,VALID,0.00721154,
2001-11-13, 00:17:01,VALID,917.82,VALID,0,VALID,95.7874,VALID,0,VALID,19.7738,VALID,108,VALID,0.133224,
2001-11-13, 00:18:01,VALID,917.79,VALID,0,VALID,95.8497,VALID,0,VALID,19.7628,VALID,17,VALID,0.301282,
2001-11-13, 00:19:01,VALID,917.779,VALID,0,VALID,95.8103,VALID,0.0169808,VALID,19.7569,VALID,17,VALID,0.193462,
2001-11-13, 00:20:01,VALID,917.764,VALID,0,VALID,95.7518,VALID,0,VALID,19.7213,VALID,17,VALID,0.0438702,
2001-11-13, 00:21:01,VALID,917.762,VALID,0,VALID,95.7315,VALID,0,VALID,19.7059,VALID,17,VALID,0,
2001-11-13, 00:22:01,VALID,917.758,VALID,0,VALID,95.8154,VALID,-0.0169808,VALID,19.6694,VALID,24,VALID,0.0647035,
2001-11-13, 00:23:01,VALID,917.758,VALID,0,VALID,95.94,VALID,0,VALID,19.66,VALID,159,VALID,0.316612,
2001-11-13, 00:24:01,VALID,917.754,VALID,0,VALID,96.0023,VALID,0,VALID,19.657,VALID,159,VALID,0.285056,
2001-11-13, 00:25:01,VALID,917.763,VALID,0,VALID,96.1104,VALID,0,VALID,19.6475,VALID,160,VALID,0.23088,
2001-11-13, 00:26:01,VALID,917.763,VALID,0,VALID,96.2821,VALID,-0.0509425,VALID,19.654,VALID,108,VALID,0.172075,
2001-11-13, 00:27:01,VALID,917.747,VALID,0,VALID,96.3012,VALID,0,VALID,19.647,VALID,30,VALID,0.462582,
2001-11-13, 00:28:01,VALID,917.724,VALID,0,VALID,96.1193,VALID,-0.0339617,VALID,19.6018,VALID,51,VALID,0.816506,
2001-11-13, 00:29:01,VALID,917.703,VALID,0,VALID,96.2986,VALID,0,VALID,19.5762,VALID,59,VALID,0.937911,
2001-11-13, 00:30:01,VALID,917.701,VALID,0,VALID,96.394,VALID,-0.0169808,VALID,19.5571,VALID,43,VALID,0.659255,
2001-11-13, 00:31:01,VALID,917.676,VALID,0,VALID,96.3558,VALID,0,VALID,19.5149,VALID,36,VALID,0.437294,
2001-11-13, 00:32:01,VALID,917.641,VALID,0,VALID,96.4359,VALID,-0.0169808,VALID,19.4923,VALID,22,VALID,0.402845,
2001-11-13, 00:33:01,VALID,917.633,VALID,0,VALID,96.6127,VALID,0,VALID,19.4759,VALID,10,VALID,0.386102,
2001-11-13, 00:34:01,VALID,917.601,VALID,0,VALID,96.7729,VALID,0,VALID,19.4793,VALID,331,VALID,0.335537,
2001-11-13, 00:35:00,VALID,917.586,VALID,0,VALID,96.9153,VALID,0,VALID,19.4982,VALID,307,VALID,0.246094,
2001-11-13, 00:36:00,VALID,917.58,VALID,0,VALID,96.9853,VALID,0.0339617,VALID,19.5601,VALID,301,VALID,0.303285,
2001-11-13, 00:37:00,VALID,917.557,VALID,0,VALID,96.9916,VALID,0,VALID,19.5857,VALID,299,VALID,0,
2001-11-13, 00:38:00,VALID,917.55,VALID,0,VALID,96.9331,VALID,0,VALID,19.609,VALID,299,VALID,0,
2001-11-13, 00:39:00,VALID,917.532,VALID,0,VALID,96.5924,VALID,0,VALID,19.5892,VALID,300,VALID,0,
2001-11-13, 00:40:00,VALID,917.538,VALID,0,VALID,96.4309,VALID,0,VALID,19.5469,VALID,300,VALID,0,
2001-11-13, 00:41:00,VALID,917.531,VALID,0,VALID,96.5084,VALID,0,VALID,19.5116,VALID,300,VALID,0,
2001-11-13, 00:42:00,VALID,917.52,VALID,0,VALID,96.6458,VALID,0,VALID,19.5019,VALID,300,VALID,0,
2001-11-13, 00:43:00,VALID,917.495,VALID,0,VALID,96.6826,VALID,-0.0169808,VALID,19.489,VALID,353,VALID,0.400288,
2001-11-13, 00:44:00,VALID,917.479,VALID,0,VALID,96.7856,VALID,0,VALID,19.486,VALID,108,VALID,0.748598,
2001-11-13, 00:45:00,VALID,917.464,VALID,0,VALID,96.8556,VALID,-0.0169808,VALID,19.4629,VALID,112,VALID,0.768709,
2001-11-13, 00:46:00,VALID,917.449,VALID,0,VALID,96.9293,VALID,0,VALID,19.4565,VALID,112,VALID,0.461939,
2001-11-13, 00:47:00,VALID,917.432,VALID,0,VALID,97.0196,VALID,0,VALID,19.4572,VALID,113,VALID,0.103413,
2001-11-13, 00:48:00,VALID,917.437,VALID,0,VALID,97.0501,VALID,0,VALID,19.447,VALID,113,VALID,0.0284455,
2001-11-13, 00:49:00,VALID,917.427,VALID,0,VALID,97.1099,VALID,-0.0339617,VALID,19.451,VALID,154,VALID,0.374794,
2001-11-13, 00:50:00,VALID,917.41,VALID,0,VALID,97.2917,VALID,-0.0169808,VALID,19.4639,VALID,166,VALID,0.196114,
2001-11-13, 00:51:00,VALID,917.4,VALID,0,VALID,97.3731,VALID,0,VALID,19.4701,VALID,166,VALID,0,
2001-11-13, 00:52:00,VALID,917.387,VALID,0,VALID,97.3159,VALID,0,VALID,19.457,VALID,166,VALID,0.0232372,
2001-11-13, 00:53:00,VALID,917.375,VALID,0,VALID,97.0781,VALID,0,VALID,19.4115,VALID,166,VALID,0.257401,
2001-11-13, 00:54:00,VALID,917.372,VALID,0,VALID,97.0489,VALID,-0.0169808,VALID,19.3792,VALID,166,VALID,0.130208,
2001-11-13, 00:55:00,VALID,917.363,VALID,0,VALID,97.2307,VALID,-0.0169808,VALID,19.3891,VALID,166,VALID,0.0450247,
2001-11-13, 00:56:00,VALID,917.342,VALID,0,VALID,97.3401,VALID,-0.0169808,VALID,19.4125,VALID,166,VALID,0,
2001-11-13, 00:57:00,VALID,917.319,VALID,0,VALID,97.3922,VALID,0,VALID,19.4187,VALID,166,VALID,0.0078125,
2001-11-13, 00:58:00,VALID,917.282,VALID,0,VALID,97.1836,VALID,-0.0169808,VALID,19.3956,VALID,134,VALID,0.322316,
2001-11-13, 00:59:00,VALID,917.252,VALID,0,VALID,97.321,VALID,-0.0679233,VALID,19.3896,VALID,75,VALID,0.599301,
2001-11-13, 01:00:00,VALID,917.233,VALID,0,VALID,97.5982,VALID,-0.0509425,VALID,19.4187,VALID,74,VALID,0.736178,
2001-11-13, 01:01:00,VALID,917.219,VALID,0,VALID,97.6452,VALID,0,VALID,19.4736,VALID,74,VALID,0.645148,
2001-11-13, 01:02:00,VALID,917.203,VALID,0,VALID,97.5143,VALID,-0.0339617,VALID,19.4858,VALID,74,VALID,0.221154,
2001-11-13, 01:03:00,VALID,917.193,VALID,0,VALID,97.3591,VALID,-0.0169808,VALID,19.4893,VALID,87,VALID,0.22903,
2001-11-13, 01:04:00,VALID,917.195,VALID,0,VALID,97.2879,VALID,-0.0339617,VALID,19.4863,VALID,128,VALID,0.456931,
2001-11-13, 01:05:00,VALID,917.182,VALID,0,VALID,97.1926,VALID,-0.0679233,VALID,19.4796,VALID,149,VALID,0.702303,
2001-11-13, 01:06:00,VALID,917.183,VALID,0,VALID,97.1938,VALID,0,VALID,19.4731,VALID,133,VALID,0.701322,
2001-11-13, 01:07:00,VALID,917.17,VALID,0,VALID,97.1697,VALID,-0.0169808,VALID,19.4726,VALID,88,VALID,0.621094,
2001-11-13, 01:08:00,VALID,917.174,VALID,0,VALID,97.0667,VALID,0,VALID,19.4763,VALID,87,VALID,0.576723,
2001-11-13, 01:09:00,VALID,917.171,VALID,0,VALID,97.1519,VALID,0,VALID,19.4893,VALID,87,VALID,0.5,
2001-11-13, 01:10:00,VALID,917.182,VALID,0,VALID,97.0272,VALID,0.0169808,VALID,19.5052,VALID,90,VALID,0.292668,
2001-11-13, 01:11:00,VALID,917.167,VALID,0,VALID,96.9942,VALID,-0.0339617,VALID,19.4987,VALID,91,VALID,0.0925164,
2001-11-13, 01:12:00,VALID,917.184,VALID,0,VALID,96.8607,VALID,-0.0169808,VALID,19.4927,VALID,90,VALID,0,
2001-11-13, 01:13:00,VALID,917.172,VALID,0,VALID,96.853,VALID,0,VALID,19.4833,VALID,91,VALID,0,
2001-11-13, 01:14:00,VALID,917.166,VALID,0,VALID,96.7882,VALID,-0.0169808,VALID,19.4699,VALID,91,VALID,0.0272436,
2001-11-13, 01:15:00,VALID,917.158,VALID,0,VALID,96.6483,VALID,-0.0509425,VALID,19.4503,VALID,90,VALID,0.0824424,
2001-11-13, 01:16:00,VALID,917.143,VALID,0,VALID,96.6992,VALID,-0.0169808,VALID,19.4311,VALID,91,VALID,0,
2001-11-13, 01:17:00,VALID,917.132,VALID,0,VALID,96.8886,VALID,-0.0339617,VALID,19.4284,VALID,91,VALID,0,
2001-11-13, 01:18:00,VALID,917.134,VALID,0,VALID,96.8212,VALID,-0.0339617,VALID,19.4219,VALID,60,VALID,0.280849,
2001-11-13, 01:19:00,VALID,917.127,VALID,0,VALID,96.6483,VALID,0,VALID,19.3896,VALID,62,VALID,0.424753,
2001-11-13, 01:20:00,VALID,917.121,VALID,0,VALID,96.8225,VALID,-0.0169808,VALID,19.3598,VALID,75,VALID,0.438301,
2001-11-13, 01:21:00,VALID,917.117,VALID,0,VALID,96.8162,VALID,-0.0169808,VALID,19.3437,VALID,75,VALID,0.420436,
2001-11-13, 01:22:00,VALID,917.104,VALID,0,VALID,96.7488,VALID,0,VALID,19.3149,VALID,83,VALID,0.573117,
2001-11-13, 01:23:00,VALID,917.101,VALID,0,VALID,97.0234,VALID,-0.0169808,VALID,19.292,VALID,113,VALID,0.877467,
2001-11-13, 01:24:00,VALID,917.1,VALID,0,VALID,97.2307,VALID,0,VALID,19.3091,VALID,120,VALID,0.670272,
2001-11-13, 01:25:00,VALID,917.107,VALID,0,VALID,97.3248,VALID,-0.0339617,VALID,19.2987,VALID,120,VALID,0.751234,
2001-11-13, 01:26:00,VALID,917.105,VALID,0,VALID,97.3604,VALID,-0.0169808,VALID,19.2982,VALID,109,VALID,0.793069,
2001-11-13, 01:27:00,VALID,917.09,VALID,0,VALID,97.3718,VALID,0,VALID,19.2989,VALID,122,VALID,0.643298,
2001-11-13, 01:28:00,VALID,917.091,VALID,0,VALID,97.5105,VALID,0,VALID,19.2987,VALID,138,VALID,0.463742,
2001-11-13, 01:29:00,VALID,917.086,VALID,0,VALID,97.5791,VALID,0,VALID,19.3019,VALID,68,VALID,0.493215,
2001-11-13, 01:30:00,VALID,917.078,VALID,0,VALID,97.4113,VALID,-0.0169808,VALID,19.2759,VALID,59,VALID,0.48097,
2001-11-13, 01:31:00,VALID,917.056,VALID,0,VALID,97.6427,VALID,0,VALID,19.289,VALID,106,VALID,0.664885,
2001-11-13, 01:32:00,VALID,917.04,VALID,0,VALID,97.6821,VALID,-0.0169808,VALID,19.3044,VALID,107,VALID,0.766627,
2001-11-13, 01:33:00,VALID,917.019,VALID,0,VALID,97.7495,VALID,0,VALID,19.3243,VALID,106,VALID,0.790707,
2001-11-13, 01:34:00,VALID,917.011,VALID,0,VALID,97.7037,VALID,-0.0169808,VALID,19.3146,VALID,102,VALID,0.673678,
2001-11-13, 01:35:00,VALID,916.984,VALID,0,VALID,97.8487,VALID,0,VALID,19.3241,VALID,112,VALID,0.888363,
2001-11-13, 01:36:00,VALID,916.978,VALID,0,VALID,97.8741,VALID,-0.0339617,VALID,19.3474,VALID,126,VALID,0.498397,
2001-11-13, 01:37:00,VALID,916.961,VALID,0,VALID,97.8271,VALID,-0.0339617,VALID,19.3673,VALID,121,VALID,0.469572,
2001-11-13, 01:38:00,VALID,916.96,VALID,0,VALID,97.7966,VALID,-0.0169808,VALID,19.3566,VALID,119,VALID,0.382212,
2001-11-13, 01:39:00,VALID,916.933,VALID,0,VALID,97.7788,VALID,0,VALID,19.3665,VALID,120,VALID,0.276727,
2001-11-13, 01:40:00,VALID,916.922,VALID,0,VALID,97.7864,VALID,-0.0169808,VALID,19.3765,VALID,121,VALID,0.404848,
2001-11-13, 01:41:00,VALID,916.915,VALID,0,VALID,97.8678,VALID,0,VALID,19.3797,VALID,126,VALID,0.517681,
2001-11-13, 01:42:00,VALID,916.9,VALID,0,VALID,97.897,VALID,-0.0169808,VALID,19.3921,VALID,120,VALID,0.609776,
2001-11-13, 01:43:00,VALID,916.894,VALID,0,VALID,97.8932,VALID,-0.0169808,VALID,19.4182,VALID,118,VALID,0.732525,
2001-11-13, 01:44:00,VALID,916.873,VALID,0,VALID,97.8894,VALID,-0.0169808,VALID,19.4316,VALID,120,VALID,0.736178,
2001-11-13, 01:45:00,VALID,916.872,VALID,0,VALID,97.8996,VALID,0.0169808,VALID,19.4344,VALID,123,VALID,0.555304,
2001-11-13, 01:46:00,VALID,916.846,VALID,0,VALID,97.9161,VALID,0,VALID,19.4503,VALID,123,VALID,0.0691106,
2001-11-13, 01:47:00,VALID,916.815,VALID,0,VALID,97.9225,VALID,-0.0509425,VALID,19.4927,VALID,122,VALID,0.0450247,
2001-11-13, 01:48:00,VALID,916.791,VALID,0,VALID,97.836,VALID,-0.0169808,VALID,19.4995,VALID,358,VALID,0.165264,
2001-11-13, 01:49:00,VALID,916.766,VALID,0,VALID,97.761,VALID,0,VALID,19.5027,VALID,353,VALID,0.210321,
2001-11-13, 01:50:00,VALID,916.745,VALID,0,VALID,97.7012,VALID,-0.0169808,VALID,19.4962,VALID,353,VALID,0.052484,
2001-11-13, 01:51:00,VALID,916.706,VALID,0,VALID,97.6821,VALID,-0.0509425,VALID,19.499,VALID,353,VALID,0,
2001-11-13, 01:52:00,VALID,916.681,VALID,0,VALID,97.6758,VALID,-0.0509425,VALID,19.5124,VALID,353,VALID,0,
2001-11-13, 01:53:00,VALID,916.65,VALID,0,VALID,97.6529,VALID,-0.0339617,VALID,19.5186,VALID,353,VALID,0.0269326,
2001-11-13, 01:54:00,VALID,916.632,VALID,0,VALID,97.5867,VALID,-0.0339617,VALID,19.5091,VALID,256,VALID,0.619391,
2001-11-13, 01:55:00,VALID,916.614,VALID,0,VALID,97.5384,VALID,-0.0509425,VALID,19.4992,VALID,249,VALID,0.648643,
2001-11-13, 01:56:00,VALID,916.594,VALID,0,VALID,97.5028,VALID,-0.0169808,VALID,19.5029,VALID,249,VALID,0.420873,
2001-11-13, 01:57:00,VALID,916.586,VALID,0,VALID,97.4736,VALID,-0.0509425,VALID,19.4895,VALID,249,VALID,0.212788,
2001-11-13, 01:58:00,VALID,916.578,VALID,0,VALID,97.4698,VALID,-0.0339617,VALID,19.4927,VALID,249,VALID,0.00841346,
2001-11-13, 01:59:00,VALID,916.565,VALID,0,VALID,97.4494,VALID,-0.0509425,VALID,19.4927,VALID,191,VALID,0.27611,
2001-11-13, 02:00:00,VALID,916.548,VALID,0,VALID,97.4075,VALID,-0.0339617,VALID,19.4898,VALID,150,VALID,0.207732,
2001-11-13, 02:01:00,VALID,916.527,VALID,0,VALID,97.3846,VALID,-0.0509425,VALID,19.4868,VALID,144,VALID,0.248766,
2001-11-13, 02:02:00,VALID,916.508,VALID,0,VALID,97.3324,VALID,-0.0849042,VALID,19.4771,VALID,137,VALID,0.410056,
2001-11-13, 02:03:00,VALID,916.494,VALID,0,VALID,97.3057,VALID,-0.0679233,VALID,19.4609,VALID,144,VALID,0.60403,
2001-11-13, 02:04:00,VALID,916.471,VALID,0,VALID,97.3095,VALID,-0.0339617,VALID,19.4475,VALID,153,VALID,0.926082,
2001-11-13, 02:05:00,VALID,916.44,VALID,0,VALID,97.29,VALID,-0.0339617,VALID,19.4572,VALID,154,VALID,0.462695,
2001-11-13, 02:06:00,VALID,916.44,VALID,0,VALID,97.2485,VALID,-0.0339617,VALID,19.4567,VALID,154,VALID,0.36879,
2001-11-13, 02:07:00,VALID,916.414,VALID,0,VALID,97.2396,VALID,-0.0169808,VALID,19.4508,VALID,162,VALID,0.362253,
2001-11-13, 02:08:00,VALID,916.405,VALID,0,VALID,97.2409,VALID,-0.0339617,VALID,19.447,VALID,209,VALID,0.410457,
2001-11-13, 02:09:00,VALID,916.377,VALID,0,VALID,97.1849,VALID,-0.0169808,VALID,19.4438,VALID,237,VALID,0.604441,
2001-11-13, 02:10:00,VALID,916.363,VALID,0,VALID,97.1709,VALID,-0.0339617,VALID,19.4279,VALID,242,VALID,0.780248,
2001-11-13, 02:11:00,VALID,916.349,VALID,0,VALID,97.2383,VALID,-0.0169808,VALID,19.4209,VALID,249,VALID,0.685238,
2001-11-13, 02:12:00,VALID,916.321,VALID,0,VALID,97.2663,VALID,0,VALID,19.4376,VALID,246,VALID,0.436298,
2001-11-13, 02:13:00,VALID,916.288,VALID,0,VALID,97.2638,VALID,-0.0169808,VALID,19.4639,VALID,243,VALID,0.363692,
2001-11-13, 02:14:00,VALID,916.255,VALID,0,VALID,97.2383,VALID,-0.0169808,VALID,19.4763,VALID,245,VALID,0.279447,
2001-11-13, 02:15:00,VALID,916.236,VALID,0,VALID,97.1748,VALID,-0.0339617,VALID,19.4927,VALID,252,VALID,0.168174,
2001-11-13, 02:16:00,VALID,916.221,VALID,0,VALID,97.0603,VALID,-0.0169808,VALID,19.5057,VALID,252,VALID,0.305088,
2001-11-13, 02:17:00,VALID,916.204,VALID,0,VALID,96.9217,VALID,-0.0169808,VALID,19.492,VALID,252,VALID,0.181743,
2001-11-13, 02:18:00,VALID,916.174,VALID,0,VALID,96.8556,VALID,-0.0169808,VALID,19.4992,VALID,252,VALID,0.0228365,
2001-11-13, 02:19:00,VALID,916.165,VALID,0,VALID,96.8657,VALID,0,VALID,19.499,VALID,252,VALID,0,
2001-11-13, 02:20:00,VALID,916.135,VALID,0,VALID,96.8263,VALID,-0.0339617,VALID,19.4796,VALID,252,VALID,0.0520833,
2001-11-13, 02:21:00,VALID,916.11,VALID,0,VALID,96.8467,VALID,-0.0509425,VALID,19.4927,VALID,252,VALID,0.0978618,
2001-11-13, 02:22:00,VALID,916.077,VALID,0,VALID,96.8187,VALID,0,VALID,19.4831,VALID,254,VALID,0.176883,
2001-11-13, 02:23:00,VALID,916.048,VALID,0,VALID,96.8047,VALID,-0.0509425,VALID,19.4704,VALID,255,VALID,0.236431,
2001-11-13, 02:24:00,VALID,916.041,VALID,0,VALID,96.8111,VALID,-0.0339617,VALID,19.4639,VALID,320,VALID,0.32472,
2001-11-13, 02:25:00,VALID,916.037,VALID,0,VALID,96.8556,VALID,0,VALID,19.4575,VALID,338,VALID,0.0643503,
2001-11-13, 02:26:00,VALID,916.031,VALID,0,VALID,96.8454,VALID,-0.0679233,VALID,19.4378,VALID,338,VALID,0.214543,
2001-11-13, 02:27:00,VALID,916.023,VALID,0,VALID,96.6992,VALID,-0.0509425,VALID,19.3991,VALID,338,VALID,0.168791,
2001-11-13, 02:28:00,VALID,916.037,VALID,0,VALID,96.5809,VALID,-0.101885,VALID,19.3635,VALID,338,VALID,0.207933,
2001-11-13, 02:29:00,VALID,916.035,VALID,0,VALID,96.5211,VALID,-0.0509425,VALID,19.3086,VALID,22,VALID,0.476768,
2001-11-13, 02:30:00,VALID,916.026,VALID,0,VALID,96.4207,VALID,-0.0509425,VALID,19.2637,VALID,50,VALID,0.760417,
2001-11-13, 02:31:00,VALID,916.034,VALID,0,VALID,96.6318,VALID,-0.0509425,VALID,19.2187,VALID,54,VALID,1.05695,
2001-11-13, 02:32:00,VALID,916.026,VALID,0,VALID,96.8568,VALID,-0.0339617,VALID,19.1928,VALID,55,VALID,0.735777,
2001-11-13, 02:33:00,VALID,916.026,VALID,0,VALID,96.9929,VALID,-0.0509425,VALID,19.1638,VALID,50,VALID,0.77241,
2001-11-13, 02:34:00,VALID,916.015,VALID,0,VALID,97.0845,VALID,0.0509425,VALID,19.1362,VALID,53,VALID,0.942909,
2001-11-13, 02:35:00,VALID,915.997,VALID,0,VALID,97.2371,VALID,0.0339617,VALID,19.13,VALID,52,VALID,0.825863,
2001-11-13, 02:36:00,VALID,915.979,VALID,0,VALID,97.3795,VALID,0.0339617,VALID,19.1268,VALID,52,VALID,0.445713,
2001-11-13, 02:37:00,VALID,915.954,VALID,0,VALID,97.438,VALID,0.0509425,VALID,19.1268,VALID,52,VALID,0.335115,
2001-11-13, 02:38:00,VALID,915.943,VALID,0,VALID,97.457,VALID,0.0169808,VALID,19.1333,VALID,52,VALID,0.093149,
2001-11-13, 02:39:00,VALID,915.928,VALID,0,VALID,97.4634,VALID,0.0679233,VALID,19.1102,VALID,52,VALID,0,
2001-11-13, 02:40:00,VALID,915.904,VALID,0,VALID,97.5117,VALID,0.0679233,VALID,19.1134,VALID,52,VALID,0.103966,
2001-11-13, 02:41:00,VALID,915.898,VALID,0,VALID,97.5092,VALID,0.0339617,VALID,19.1206,VALID,52,VALID,0.206826,
2001-11-13, 02:42:00,VALID,915.885,VALID,0,VALID,97.4888,VALID,0.0339617,VALID,19.101,VALID,52,VALID,0.0584936,
2001-11-13, 02:43:00,VALID,915.877,VALID,0,VALID,97.5461,VALID,0.0849042,VALID,19.1007,VALID,52,VALID,0,
2001-11-13, 02:44:00,VALID,915.869,VALID,0,VALID,97.527,VALID,0.0509425,VALID,19.0977,VALID,53,VALID,0.0604968,
2001-11-13, 02:45:00,VALID,915.851,VALID,0,VALID,97.4736,VALID,0.0339617,VALID,19.088,VALID,127,VALID,0.348067,
2001-11-13, 02:46:00,VALID,915.838,VALID,0,VALID,97.5283,VALID,0.0679233,VALID,19.0687,VALID,180,VALID,0.252204,
2001-11-13, 02:47:00,VALID,915.837,VALID,0,VALID,97.6147,VALID,0.0679233,VALID,19.0717,VALID,180,VALID,0.156044,
2001-11-13, 02:48:00,VALID,915.834,VALID,0,VALID,97.6567,VALID,0.0339617,VALID,19.0848,VALID,180,VALID,0,
2001-11-13, 02:49:00,VALID,915.83,VALID,0,VALID,97.6643,VALID,-0.0509425,VALID,19.0892,VALID,180,VALID,0,
2001-11-13, 02:50:00,VALID,915.825,VALID,0,VALID,97.6681,VALID,-0.0169808,VALID,19.0959,VALID,210,VALID,0.201122,
2001-11-13, 02:51:00,VALID,915.847,VALID,0,VALID,97.6147,VALID,-0.0339617,VALID,19.0863,VALID,286,VALID,0.149671,
2001-11-13, 02:52:00,VALID,915.844,VALID,0,VALID,97.5079,VALID,-0.0169808,VALID,19.0634,VALID,31,VALID,0.210337,
2001-11-13, 02:53:00,VALID,915.834,VALID,0,VALID,97.4748,VALID,-0.0679233,VALID,19.0443,VALID,31,VALID,0.0766859,
2001-11-13, 02:54:00,VALID,915.832,VALID,0,VALID,97.4685,VALID,-0.0509425,VALID,19.0316,VALID,28,VALID,0.000400641,
2001-11-13, 02:55:00,VALID,915.826,VALID,0,VALID,97.499,VALID,-0.0339617,VALID,19.0311,VALID,342,VALID,0.370271,
2001-11-13, 02:56:00,VALID,915.815,VALID,0,VALID,97.574,VALID,-0.0509425,VALID,19.0443,VALID,353,VALID,0.36899,
2001-11-13, 02:57:00,VALID,915.817,VALID,0,VALID,97.4825,VALID,-0.0509425,VALID,19.041,VALID,23,VALID,0.69963,
2001-11-13, 02:58:00,VALID,915.803,VALID,0,VALID,97.1506,VALID,-0.0169808,VALID,18.9631,VALID,31,VALID,0.724559,
2001-11-13, 02:59:00,VALID,915.808,VALID,0,VALID,97.1926,VALID,-0.0509425,VALID,18.9312,VALID,20,VALID,0.462582,
2001-11-13, 03:00:00,VALID,915.825,VALID,0,VALID,97.5461,VALID,0,VALID,18.9474,VALID,2,VALID,0.834335,
2001-11-13, 03:01:00,VALID,915.825,VALID,0,VALID,97.8373,VALID,-0.0509425,VALID,19.0025,VALID,15,VALID,0.748561,
2001-11-13, 03:02:00,VALID,915.832,VALID,0,VALID,97.8538,VALID,-0.0169808,VALID,19.0182,VALID,16,VALID,0.383013,
2001-11-13, 03:03:00,VALID,915.835,VALID,0,VALID,97.9059,VALID,0,VALID,19.0507,VALID,16,VALID,0.186883,
2001-11-13, 03:04:00,VALID,915.844,VALID,0,VALID,97.9937,VALID,-0.0169808,VALID,19.0994,VALID,3,VALID,0.406851,
2001-11-13, 03:05:00,VALID,915.837,VALID,0,VALID,98.0382,VALID,-0.0339617,VALID,19.1121,VALID,352,VALID,0.382196,
2001-11-13, 03:06:00,VALID,915.837,VALID,0,VALID,97.9822,VALID,-0.0509425,VALID,19.1315,VALID,351,VALID,0.314103,
2001-11-13, 03:07:00,VALID,915.84,VALID,0,VALID,97.9657,VALID,-0.0509425,VALID,19.1576,VALID,346,VALID,0.0910773,
2001-11-13, 03:08:00,VALID,915.843,VALID,0,VALID,97.9199,VALID,-0.0339617,VALID,19.1638,VALID,346,VALID,0.167268,
2001-11-13, 03:09:00,VALID,915.834,VALID,0,VALID,97.8983,VALID,-0.0509425,VALID,19.1799,VALID,346,VALID,0.0205592,
2001-11-13, 03:10:00,VALID,915.831,VALID,0,VALID,97.8792,VALID,-0.0339617,VALID,19.1963,VALID,348,VALID,0.32512,
2001-11-13, 03:11:00,VALID,915.816,VALID,0,VALID,97.8601,VALID,-0.0339617,VALID,19.1931,VALID,13,VALID,0.939967,
2001-11-13, 03:12:00,VALID,915.81,VALID,0,VALID,97.7902,VALID,-0.0339617,VALID,19.1896,VALID,13,VALID,0.83754,
2001-11-13, 03:13:00,VALID,915.822,VALID,0,VALID,97.7304,VALID,-0.0339617,VALID,19.1928,VALID,339,VALID,0.462788,
2001-11-13, 03:14:00,VALID,915.85,VALID,0,VALID,97.7571,VALID,-0.0509425,VALID,19.1926,VALID,271,VALID,0.327123,
2001-11-13, 03:15:00,VALID,915.875,VALID,0,VALID,97.7826,VALID,-0.0509425,VALID,19.2127,VALID,268,VALID,0,
2001-11-13, 03:16:00,VALID,915.867,VALID,0,VALID,97.7533,VALID,-0.0509425,VALID,19.2025,VALID,309,VALID,0.10597,
2001-11-13, 03:17:00,VALID,915.868,VALID,0,VALID,97.6529,VALID,-0.0339617,VALID,19.1767,VALID,1,VALID,0.181127,
2001-11-13, 03:18:00,VALID,915.878,VALID,0,VALID,97.7482,VALID,-0.0169808,VALID,19.1735,VALID,315,VALID,0.328726,
2001-11-13, 03:19:00,VALID,915.874,VALID,0,VALID,97.8512,VALID,0.0509425,VALID,19.1787,VALID,315,VALID,0.247738,
2001-11-13, 03:20:00,VALID,915.872,VALID,0,VALID,97.8894,VALID,0.0679233,VALID,19.1718,VALID,315,VALID,0.19371,
2001-11-13, 03:21:00,VALID,915.855,VALID,0,VALID,97.9606,VALID,0.0849042,VALID,19.1817,VALID,314,VALID,0.0974507,
2001-11-13, 03:22:00,VALID,915.86,VALID,0,VALID,98.0013,VALID,0.0679233,VALID,19.1819,VALID,340,VALID,0.318109,
2001-11-13, 03:23:00,VALID,915.86,VALID,0,VALID,98.0382,VALID,0.0679233,VALID,19.1785,VALID,357,VALID,0.607525,
2001-11-13, 03:24:00,VALID,915.861,VALID,0,VALID,98.0242,VALID,0.0849042,VALID,19.1815,VALID,8,VALID,0.657452,
2001-11-13, 03:25:00,VALID,915.86,VALID,0,VALID,97.9809,VALID,0.0339617,VALID,19.1949,VALID,14,VALID,0.76028,
2001-11-13, 03:26:00,VALID,915.879,VALID,0,VALID,97.8919,VALID,0.0339617,VALID,19.1949,VALID,21,VALID,1.11178,
2001-11-13, 03:27:00,VALID,915.858,VALID,0,VALID,97.7444,VALID,0.0679233,VALID,19.2013,VALID,15,VALID,1.18853,
2001-11-13, 03:28:00,VALID,915.864,VALID,0,VALID,97.6351,VALID,0.0679233,VALID,19.2108,VALID,26,VALID,0.927684,
2001-11-13, 03:29:00,VALID,915.863,VALID,0,VALID,97.452,VALID,0.0849042,VALID,19.2239,VALID,24,VALID,0.988281,
2001-11-13, 03:30:00,VALID,915.859,VALID,0,VALID,97.3032,VALID,0.0849042,VALID,19.2066,VALID,21,VALID,0.481971,
2001-11-13, 03:31:00,VALID,915.872,VALID,0,VALID,97.2015,VALID,0.0679233,VALID,19.2239,VALID,8,VALID,0.129729,
2001-11-13, 03:32:00,VALID,915.876,VALID,0,VALID,97.0832,VALID,0.0679233,VALID,19.2008,VALID,10,VALID,0.141627,
2001-11-13, 03:33:00,VALID,915.888,VALID,0,VALID,97.0489,VALID,0.101885,VALID,19.1944,VALID,17,VALID,0.178865,
2001-11-13, 03:34:00,VALID,915.889,VALID,0,VALID,97.0133,VALID,0,VALID,19.1886,VALID,17,VALID,0.100561,